Time,TemperatureF,DewpointF,PressureIn,WindDirection,WindDirectionDegrees,WindSpeedMPH,WindSpeedGustMPH,Humidity,HourlyPrecipIn,Conditions,Clouds,dailyrainin,SoftwareType,DateUTC
2013-01-06 14:22:00,34.0,23.0,-100.00,ENE,75,8.0,9.0,66,-99.99,,,0.00,,2013-01-06 21:22:00,
2013-01-06 14:33:00,34.0,23.0,-100.00,ENE,75,8.0,9.0,66,-99.99,,,0.00,,2013-01-06 21:33:00,
2013-01-06 14:52:00,35.0,23.0,-100.00,East,80,6.0,8.0,61,-99.99,,,0.00,,2013-01-06 21:52:00,
2013-01-06 15:02:00,35.0,23.0,-100.00,East,80,6.0,8.0,61,-99.99,,,0.00,,2013-01-06 22:02:00,
2013-01-06 15:12:00,36.0,22.0,-100.00,East,80,6.0,9.0,58,-99.99,,,0.00,,2013-01-06 22:12:00,
2013-01-06 15:22:00,36.0,22.0,-100.00,East,80,6.0,9.0,58,-99.99,,,0.00,,2013-01-06 22:22:00,
2013-01-06 15:33:00,35.0,22.0,-100.00,ENE,60,7.0,9.0,60,-99.99,,,0.00,,2013-01-06 22:33:00,
2013-01-06 15:43:00,35.0,22.0,-100.00,ENE,60,7.0,9.0,60,-99.99,,,0.00,,2013-01-06 22:43:00,
2013-01-06 15:52:00,34.0,22.0,-100.00,ENE,75,4.0,6.0,60,-99.99,,,0.00,,2013-01-06 22:52:00,
2013-01-06 16:02:00,34.0,22.0,-100.00,ENE,75,4.0,6.0,60,-99.99,,,0.00,,2013-01-06 23:02:00,
2013-01-06 16:12:00,34.0,22.0,-100.00,North,0,6.0,6.0,60,-99.99,,,0.00,,2013-01-06 23:12:00,
2013-01-06 16:22:00,34.0,22.0,-100.00,North,0,6.0,6.0,60,-99.99,,,0.00,,2013-01-06 23:22:00,
2013-01-06 16:33:00,35.0,22.0,-100.00,East,90,7.0,9.0,58,-99.99,,,0.00,,2013-01-06 23:33:00,
2013-01-06 16:43:00,35.0,22.0,-100.00,East,90,7.0,9.0,58,-99.99,,,0.00,,2013-01-06 23:43:00,
2013-01-06 16:52:00,35.0,22.0,-100.00,East,85,6.0,8.0,58,-99.99,,,0.00,,2013-01-06 23:52:00,
2013-01-06 17:02:00,35.0,22.0,-100.00,East,85,6.0,8.0,58,-99.99,,,0.00,,2013-01-07 00:02:00,
2013-01-06 17:12:00,33.0,22.0,-100.00,North,10,2.0,4.0,62,-99.99,,,0.00,,2013-01-07 00:12:00,
2013-01-06 17:23:00,33.0,22.0,-100.00,North,10,2.0,4.0,62,-99.99,,,0.00,,2013-01-07 00:23:00,
2013-01-06 17:33:00,32.0,21.0,-100.00,NNE,15,3.0,7.0,65,-99.99,,,0.00,,2013-01-07 00:33:00,
2013-01-06 17:42:00,32.0,21.0,-100.00,NNE,15,3.0,7.0,65,-99.99,,,0.00,,2013-01-07 00:42:00,
2013-01-06 17:52:00,34.0,22.0,-100.00,East,85,7.0,8.0,61,-99.99,,,0.00,,2013-01-07 00:52:00,
2013-01-06 18:02:00,34.0,22.0,-100.00,East,85,7.0,8.0,61,-99.99,,,0.00,,2013-01-07 01:02:00,
2013-01-06 18:12:00,34.0,23.0,-100.00,North,0,6.0,7.0,62,-99.99,,,0.00,,2013-01-07 01:12:00,
2013-01-06 18:23:00,34.0,23.0,-100.00,North,0,6.0,7.0,62,-99.99,,,0.00,,2013-01-07 01:23:00,
2013-01-06 18:32:00,32.0,22.0,-100.00,NNE,20,1.0,2.0,65,-99.99,,,0.00,,2013-01-07 01:32:00,
2013-01-06 18:43:00,32.0,22.0,-100.00,NNE,20,1.0,2.0,65,-99.99,,,0.00,,2013-01-07 01:43:00,
2013-01-06 18:52:00,32.0,22.0,-100.00,NNE,20,1.0,2.0,65,-99.99,,,0.00,,2013-01-07 01:52:00,
2013-01-06 19:02:00,32.0,22.0,-100.00,NNE,20,1.0,2.0,65,-99.99,,,0.00,,2013-01-07 02:02:00,
2013-01-06 19:12:00,32.0,22.0,-100.00,NNE,15,2.0,3.0,66,-99.99,,,0.00,,2013-01-07 02:12:00,
2013-01-06 19:22:00,32.0,22.0,-100.00,NNE,15,2.0,3.0,66,-99.99,,,0.00,,2013-01-07 02:22:00,
2013-01-06 19:32:00,32.0,22.0,-100.00,North,10,0.0,1.0,64,-99.99,,,0.00,,2013-01-07 02:32:00,
2013-01-06 19:43:00,32.0,22.0,-100.00,North,10,0.0,1.0,64,-99.99,,,0.00,,2013-01-07 02:43:00,
2013-01-06 19:52:00,32.0,22.0,-100.00,North,10,0.0,1.0,64,-99.99,,,0.00,,2013-01-07 02:52:00,
2013-01-06 20:02:00,32.0,22.0,-100.00,North,10,0.0,1.0,64,-99.99,,,0.00,,2013-01-07 03:02:00,
2013-01-06 20:12:00,32.0,22.0,-100.00,NNE,15,3.0,3.0,65,-99.99,,,0.00,,2013-01-07 03:12:00,
2013-01-06 20:22:00,32.0,22.0,-100.00,NNE,15,3.0,3.0,65,-99.99,,,0.00,,2013-01-07 03:22:00,
2013-01-06 20:33:00,33.0,23.0,-100.00,North,10,6.0,7.0,66,-99.99,,,0.00,,2013-01-07 03:33:00,
2013-01-06 20:43:00,33.0,23.0,-100.00,North,10,6.0,7.0,66,-99.99,,,0.00,,2013-01-07 03:43:00,
2013-01-06 20:52:00,33.0,23.0,-100.00,North,5,5.0,7.0,66,-99.99,,,0.00,,2013-01-07 03:52:00,
2013-01-06 21:02:00,33.0,23.0,-100.00,North,5,5.0,7.0,66,-99.99,,,0.00,,2013-01-07 04:02:00,
2013-01-06 21:12:00,34.0,23.0,-100.00,North,5,6.0,8.0,66,-99.99,,,0.00,,2013-01-07 04:12:00,
2013-01-06 21:22:00,34.0,23.0,-100.00,North,5,6.0,8.0,66,-99.99,,,0.00,,2013-01-07 04:22:00,
2013-01-06 21:32:00,35.0,24.0,-100.00,North,10,4.0,6.0,64,-99.99,,,0.00,,2013-01-07 04:32:00,
2013-01-06 21:42:00,35.0,24.0,-100.00,North,10,4.0,6.0,64,-99.99,,,0.00,,2013-01-07 04:42:00,
2013-01-06 21:52:00,36.0,24.0,-100.00,North,10,9.0,11.0,62,-99.99,,,0.00,,2013-01-07 04:52:00,
2013-01-06 22:03:00,36.0,24.0,-100.00,North,10,9.0,11.0,62,-99.99,,,0.00,,2013-01-07 05:03:00,
2013-01-06 22:12:00,36.0,24.0,-100.00,NNE,15,6.0,9.0,61,-99.99,,,0.00,,2013-01-07 05:12:00,
2013-01-06 22:21:00,31.0,21.0,-100.00,North,5,11.0,12.0,66,-99.99,,,0.00,,2013-01-07 05:21:00,
2013-01-06 22:22:00,36.0,24.0,-100.00,NNE,15,6.0,9.0,61,-99.99,,,0.00,,2013-01-07 05:22:00,
2013-01-06 22:33:00,32.0,22.0,-100.00,North,5,9.0,11.0,65,-99.99,,,0.00,,2013-01-07 05:33:00,
2013-01-06 22:42:00,32.0,22.0,-100.00,North,5,9.0,11.0,65,-99.99,,,0.00,,2013-01-07 05:42:00,
2013-01-06 22:52:00,31.0,21.0,-100.00,North,5,11.0,12.0,66,-99.99,,,0.00,,2013-01-07 05:52:00,
2013-01-06 23:02:00,31.0,21.0,-100.00,North,5,11.0,12.0,66,-99.99,,,0.00,,2013-01-07 06:02:00,
2013-01-06 23:12:00,31.0,21.0,-100.00,North,5,11.0,12.0,66,-99.99,,,0.00,,2013-01-07 06:12:00,
2013-01-06 23:32:00,32.0,22.0,-100.00,NNE,15,4.0,12.0,65,-99.99,,,0.00,,2013-01-07 06:32:00,
2013-01-06 23:42:00,32.0,22.0,-100.00,NNE,15,4.0,12.0,65,-99.99,,,0.00,,2013-01-07 06:42:00,
2013-01-06 23:52:00,29.0,21.0,-100.00,NNE,15,3.0,7.0,69,-99.99,,,0.00,,2013-01-07 06:52:00,